Location: Peterborough
(44.3091°N, 78.3197°W)
Time: 01:14:17
(UTC-04:00)

Vanguard 2 Rocket - Pass Details

Date: 29 March 2023
Orbit: 554 x 3314 km, 32.9° (Epoch: 02 June)

Event Time Altitude Azimuth Distance (km) Brightness Sun altitude
Rises 23:00:25 0° 262° (W) 3,992 10.6 -33.0°
Reaches altitude 10° 23:02:56 10° 253° (WSW) 3,320 10.0 -33.3°
Enters shadow 23:08:55 35° 210° (SSW) 2,522 8.9 -34.0°
Maximum altitude 23:10:48 37° 189° (S) 2,608 - -34.2°
Drops below altitude 10° 23:23:35 10° 130° (SE) 5,386 - -35.6°
Sets 23:29:02 0° 124° (SE) 6,770 - -36.2°
